Location: Cheyres
(46.8153°N, 6.7877°E)
Time: 17:40:27
(UTC+00:00)

QB50P2 - Pass Details

Date: 28 June 2022
Orbit: 590 x 605 km, 97.9° (Epoch: 18 August)

Event Time Altitude Azimuth Distance (km) Brightness Sun altitude
Rises 23:43:52 0° 32° (NNE) 2,859 ? -19.9°
Reaches altitude 10° 23:47:04 10° 58° (ENE) 1,953 ? -19.9°
Maximum altitude 23:49:16 14° 90° (E) 1,712 ? -19.9°
Enters shadow 23:50:43 12° 112° (ESE) 1,821 ? -19.9°
